Regional Weather Roundup
Issued by NWS

Home | Current Version | Previous Version | Text Only | Print | Product List | Glossary Off
Versions: 1 2 3 4 5 6 7 8 9 10 11 12 13 14 15 16 17 18 19 20 21 22 23 24 25 26 27 28 29 30 31 32 33 34 35 36 37 38 39 40 41 42 43 44 45 46 47 48 49 50

000
ASUS43 KFSD 091902
RWRSD

WEATHER ROUNDUP FOR SOUTH DAKOTA
NATIONAL WEATHER SERVICE SIOUX FALLS SD
100 PM CST FRI DEC 09 2016

NOTE: "FAIR" INDICATES FEW OR NO CLOUDS BELOW 12,000 FEET WITH NO
SIGNIFICANT WEATHER AND/OR OBSTRUCTIONS TO VISIBILITY.


SDZ001>005-009-010-012>017-092000-
NORTHWEST AND NORTH CENTRAL SOUTH DAKOTA

CITY           SKY/WX    TMP DP  RH WIND       PRES   REMARKS
BUFFALO          N/A      4  -2  76 E3        30.29F
FAITH            N/A      2  -4  76 NE9       30.42F WCI -13
MOBRIDGE       CLOUDY     4  -4  69 N8        30.50F HAZE    WCI  -9
$$

SDZ012>016-024>037-041>051-057-063-072>074-092000-
SOUTHWEST AND SOUTH CENTRAL SOUTH DAKOTA

CITY           SKY/WX    TMP DP  RH WIND       PRES   REMARKS
RAPID CTY ARPT LGT SNOW   3  -3  76 N9        30.34F WCI -12
PIERRE         LGT SNOW   5   0  79 NE8       30.49S VSB 3/4 WCI  -8
CUSTER         CLOUDY    14   5  67 W5        30.06F WCI   6
ELLSWORTH AFB  FLURRIES   1  -3  83 N8        30.33F WCI -12
PHILIP         LGT SNOW   6   1  80 NE13      30.43F WCI -10
PINE RIDGE     CLOUDY     6   2  83 NW6       30.29F WCI  -4
SPEARFISH      PTSUNNY   -2  -6  84 NE7       30.28S WCI -16
WINNER         LGT SNOW  12   7  80 E8        30.41F WCI   0
$$

SDZ004>011-016>023-039-040-092000-
NORTHEAST SOUTH DAKOTA

CITY           SKY/WX    TMP DP  RH WIND       PRES   REMARKS
ABERDEEN       CLOUDY     8  -4  58 N7        30.56F WCI  -3
WATERTOWN      CLOUDY     3  -2  79 NW10      30.48F WCI -12
SISSETON         N/A      7  -1  70 N14       30.54F WCI -10
$$

SDZ017-020-022-023-036>040-048>070-092000-
SOUTHEAST SOUTH DAKOTA

CITY           SKY/WX    TMP DP  RH WIND       PRES   REMARKS
SIOUX FALLS    CLOUDY    14   5  67 CALM      30.51F
HURON          LGT SNOW   6  -1  73 N6        30.56F WCI  -4
CHAMBERLAIN    LGT SNOW  12   6  77 NE7       30.48F WCI   1
MITCHELL       LGT SNOW   9   3  77 NE6       30.55F WCI  -1
YANKTON        CLOUDY    10   3  72 CALM      30.52F
$$

ABBREVIATIONS USED IN REMARKS
   TC - TEMPERATURE IN CELSIUS
  WCI - WIND CHILL INDEX
   HX - HEAT INDEX
  VSB - VISIBILITY





USA.gov is the U.S. government's official web portal to all federal, state and local government web resources and services.